Regional Weather Roundup
Issued by NWS Green Bay, WI

Home | Current Version | Previous Version | Text Only | Print | Product List | Glossary On
Versions: 1 2 3 4 5 6 7 8 9 10 11 12 13 14 15 16 17 18 19 20 21 22 23 24 25 26 27 28 29 30 31 32 33 34 35 36 37 38 39 40 41 42 43 44 45 46 47 48 49 50
000
ASUS43 KGRB 260810
RWRGRB

NORTH-CENTRAL AND NORTHEAST WISCONSIN REGIONAL WEATHER ROUNDUP
NATIONAL WEATHER SERVICE GREEN BAY WI
200 AM CST FRI DEC 26 2014

WIZ005-009-010>012-018-019-260900-
NORTH CENTRAL WISCONSIN

CITY           SKY/WX    TMP DP  RH WIND       PRES   REMARKS
IRONWOOD       CLOUDY    28  28 100 CALM      29.87S
MANITOWISH WTR CLOUDY    27  27 100 CALM      29.87S FOG
ARBOR VITAE    CLOUDY    27  25  95 CALM      29.87S FOG
EAGLE RIVER    CLOUDY    28  28 100 CALM      29.87S FOG
LAND O LAKES   MOCLDY    28  28 100 CALM      29.88S FOG
RHINELANDER    CLOUDY    29  27  92 CALM      29.88S FOG
PHILLIPS       CLOUDY    29  28  97 E3        29.86F
ANTIGO         PTCLDY    25  25 100 SE3       29.88R FOG
TOMAHAWK       CLOUDY    29  28  95 CALM      29.88S FOG
MERRILL        CLOUDY    28  28 100 CALM      29.87S FOG
$$

WIZ013-073-260900-
NORTHEAST WISCONSIN

CITY           SKY/WX    TMP DP  RH WIND       PRES   REMARKS
IRON MOUNTAIN  CLOUDY    31  29  92 CALM      29.90F FOG
MARINETTE      CLOUDY    28  27  93 NE3       29.93R
OCONTO           N/A     27  27 100 CALM      29.93R VSB 1/2
$$

WIZ017-030-035>037-045-260900-
CENTRAL WISCONSIN

CITY           SKY/WX    TMP DP  RH WIND       PRES   REMARKS
MEDFORD          N/A     23  23  98 E6        29.85S FOG
WAUSAU         FOG       27  25  92 CALM      29.87R VSB 1
MOSINEE        PTCLDY    28  28 100 E5        29.89R FOG
MARSHFIELD     PTCLDY    28  25  88 NE3       29.87R FOG
WISC RAPIDS    PTCLDY    29  27  92 CALM      29.89R
STEVENS POINT  PTCLDY    26  26  99 CALM      29.89R FOG
WAUPACA        PTCLDY    28  27  95 CALM      29.91R FOG
SHAWANO          N/A     30  28  94 CALM      29.91S FOG
CLINTONVILLE   PTCLDY    27  27 100 CALM      29.91R FOG
$$

WIZ038-039-048-051-260900-
FOX VALLEY

CITY           SKY/WX    TMP DP  RH WIND       PRES   REMARKS
NWS GREEN BAY  MOCLDY    31  30  96 CALM      29.92S FOG
APPLETON       PTCLDY    30  30 100 S5        29.91S FOG
OSHKOSH        PTCLDY    34  31  88 S10       29.91S
FOND DU LAC    PTCLDY    37  32  82 S13       29.92R
$$

WIZ022-050-052-260900-
EAST CENTRAL WISCONSIN

CITY           SKY/WX    TMP DP  RH WIND       PRES   REMARKS
STURGEON BAY   CLOUDY    34  28  80 CALM      29.95S
MANITOWOC      PTCLDY    29  27  92 CALM      29.95R FOG
SHEBOYGAN      PTCLDY    36  32  85 S10       29.94S
$$

LMZ563-521-522-541>543-260900-
LAKESHORE

STATION/POSITION TIME  TEMP    WIND        PRES    VSBY  WAVE
                       AIR SEA DIR/SP/G                  HT/PER
                 (UTC) (F)     (DEG/KT/KT) (MB)    (MI)  (FT/S)
SHEBOYGAN LKSHOR 0800   40 37  180/ 12/ 13 1014.7F
KEWAUNEE LKSHORE 0800   31      CALM  /  2 1013.1R
ALGOMA MARINA    0800             CALM       N/A
NORTHPORT PIER   0800   32      CALM  /  2 1013.9F
SISTER BAY LKSHO 0800          150/  6/  7   N/A
CHAMBERS ISLAND  0800   30        CALM     1013.9S
MENOMINEE LKSHOR 0800   33     180/  2/  4 1014.2R
$$


USA.gov is the U.S. government's official web portal to all federal, state and local government web resources and services.